SWR317K LSZH-LIBD

Flight info

Callsign SWR317K
Flight time N/A
Altitude 37000
Route DEGES Z2 XEBIX L607 ELMEM N606 GIRIS DCT AGOMO DCT UTAME DCT AFCAM DCT BEFHE DCT EKMUR
Aircraft A321/M-SDE3FGHIRWY/LB1

Departure

Time 2026-05-07 20:36
Airport Zürich Airport (LSZH)

Arrival

Time N/A
Airport Bari Karol Wojtyła International Airport (LIBD)
Time Latitude Longitude Altitude Speed Heading
2026-05-07 20:24 47.44843 8.55878 1383 ft 0 kts 245°
2026-05-07 20:30 47.44842 8.55878 1383 ft 0 kts 245°
2026-05-07 20:30 47.44829 8.55835 1383 ft 10 kts 246°
2026-05-07 20:30 47.44856 8.55751 1383 ft 11 kts 332°
2026-05-07 20:30 47.44952 8.55681 1383 ft 18 kts 335°
2026-05-07 20:31 47.45090 8.55585 1383 ft 24 kts 335°
2026-05-07 20:31 47.45233 8.55519 1383 ft 21 kts
2026-05-07 20:31 47.45369 8.55514 1383 ft 16 kts 337°
2026-05-07 20:31 47.45477 8.55441 1383 ft 17 kts 336°
2026-05-07 20:32 47.45596 8.55362 1383 ft 20 kts 335°
2026-05-07 20:32 47.45672 8.55423 1383 ft 16 kts 94°
2026-05-07 20:32 47.45657 8.55598 1383 ft 18 kts 97°
2026-05-07 20:32 47.45643 8.55800 1383 ft 19 kts 95°
2026-05-07 20:33 47.45629 8.56001 1383 ft 19 kts 96°
2026-05-07 20:33 47.45615 8.56196 1383 ft 16 kts 97°
2026-05-07 20:33 47.45698 8.56276 1380 ft 19 kts
2026-05-07 20:33 47.45817 8.56296 1383 ft 13 kts
2026-05-07 20:34 47.45915 8.56311 1383 ft 16 kts
2026-05-07 20:34 47.46002 8.56324 1384 ft 5 kts
2026-05-07 20:34 47.45999 8.56323 1383 ft 0 kts
2026-05-07 20:34 47.46025 8.56327 1386 ft 17 kts
2026-05-07 20:35 47.46117 8.56417 1396 ft 15 kts 36°
2026-05-07 20:35 47.46158 8.56405 1400 ft 4 kts 320°
2026-05-07 20:35 47.46389 8.56091 1395 ft 92 kts 317°
2026-05-07 20:35 47.47060 8.55149 1412 ft 168 kts 315°
2026-05-07 20:36 47.47949 8.53896 2060 ft 182 kts 319°
2026-05-07 20:36 47.48860 8.52661 2989 ft 177 kts 323°
2026-05-07 20:36 47.49876 8.51615 3512 ft 187 kts 328°
2026-05-07 20:36 47.51022 8.50556 3922 ft 204 kts 328°
2026-05-07 20:37 47.52227 8.49217 4272 ft 228 kts 312°
2026-05-07 20:37 47.53043 8.47151 4905 ft 237 kts 292°
2026-05-07 20:37 47.53470 8.44794 5705 ft 240 kts 270°
2026-05-07 20:37 47.53139 8.42401 6485 ft 241 kts 248°
2026-05-07 20:38 47.52434 8.40174 7254 ft 243 kts 243°
2026-05-07 20:38 47.51495 8.38100 7993 ft 246 kts 221°
2026-05-07 20:38 47.50011 8.36973 8719 ft 246 kts 189°
2026-05-07 20:38 47.48343 8.37176 9446 ft 248 kts 158°
2026-05-07 20:39 47.46973 8.38689 10138 ft 252 kts 127°
2026-05-07 20:39 47.46172 8.41027 10810 ft 258 kts 112°
2026-05-07 20:39 47.45734 8.43610 11421 ft 265 kts 98°
2026-05-07 20:39 47.45645 8.46393 11823 ft 281 kts 91°
2026-05-07 20:40 47.45670 8.49360 12147 ft 298 kts 90°
2026-05-07 20:40 47.45702 8.52497 12461 ft 316 kts 90°
2026-05-07 20:40 47.45763 8.55822 12761 ft 333 kts 88°
2026-05-07 20:40 47.45887 8.59341 13073 ft 348 kts 88°
2026-05-07 20:41 47.46022 8.62962 13602 ft 355 kts 88°
2026-05-07 20:41 47.46157 8.66626 14249 ft 358 kts 88°
2026-05-07 20:41 47.46292 8.70302 14876 ft 362 kts 88°
2026-05-07 20:41 47.46431 8.74033 15490 ft 365 kts 88°
2026-05-07 20:42 47.46568 8.77761 16085 ft 368 kts 88°
2026-05-07 20:42 47.46590 8.81588 16675 ft 371 kts 91°
2026-05-07 20:42 47.46622 8.85420 17043 ft 381 kts 90°
2026-05-07 20:42 47.46682 8.89378 17268 ft 394 kts 89°
2026-05-07 20:43 47.46744 8.93525 17488 ft 406 kts 89°
2026-05-07 20:43 47.46800 8.97706 17692 ft 417 kts 89°
2026-05-07 20:43 47.46850 9.02059 17885 ft 428 kts 90°
2026-05-07 20:43 47.46897 9.06521 18068 ft 438 kts 90°
2026-05-07 20:44 47.46941 9.11019 18234 ft 447 kts 89°
2026-05-07 20:44 47.46983 9.15660 18518 ft 452 kts 90°
2026-05-07 20:44 47.47024 9.20346 18817 ft 457 kts 89°
2026-05-07 20:44 47.47062 9.25051 19129 ft 460 kts 89°
2026-05-07 20:45 47.47098 9.29739 19460 ft 463 kts 89°
2026-05-07 20:45 47.47133 9.34563 19803 ft 466 kts 89°
2026-05-07 20:45 47.47165 9.39374 20128 ft 469 kts 89°
2026-05-07 20:45 47.47195 9.44188 20459 ft 471 kts 89°
2026-05-07 20:46 47.47223 9.49025 20782 ft 473 kts 89°
2026-05-07 20:46 47.47249 9.53900 21083 ft 476 kts 89°
2026-05-07 20:46 47.47249 9.58846 21379 ft 479 kts 91°
2026-05-07 20:46 47.47092 9.63765 21673 ft 481 kts 94°
2026-05-07 20:47 47.46840 9.68691 21972 ft 483 kts 95°
2026-05-07 20:47 47.46567 9.73654 22246 ft 485 kts 95°
2026-05-07 20:47 47.46289 9.78573 22512 ft 487 kts 95°
2026-05-07 20:47 47.46004 9.83628 22790 ft 489 kts 95°
2026-05-07 20:48 47.45721 9.88624 23049 ft 492 kts 95°
2026-05-07 20:48 47.45434 9.93686 23299 ft 494 kts 95°
2026-05-07 20:48 47.45147 9.98715 23555 ft 496 kts 95°
2026-05-07 20:48 47.44854 10.03809 23798 ft 498 kts 95°
2026-05-07 20:49 47.44561 10.08865 24019 ft 500 kts 95°
2026-05-07 20:49 47.44255 10.14044 24248 ft 501 kts 96°
2026-05-07 20:49 47.43836 10.19157 24472 ft 503 kts 98°
2026-05-07 20:49 47.43235 10.24256 24686 ft 504 kts 101°
2026-05-07 20:50 47.42556 10.29340 24879 ft 506 kts 102°
2026-05-07 20:50 47.41861 10.34421 25059 ft 508 kts 102°
2026-05-07 20:50 47.41160 10.39520 25244 ft 509 kts 102°
2026-05-07 20:50 47.40044 10.44474 25376 ft 509 kts 117°
2026-05-07 20:51 47.38041 10.48723 25532 ft 506 kts 135°
2026-05-07 20:51 47.35304 10.51941 25681 ft 502 kts 151°
2026-05-07 20:51 47.32267 10.54379 25866 ft 501 kts 155°
2026-05-07 20:51 47.29143 10.56699 26001 ft 502 kts 157°
2026-05-07 20:52 47.25925 10.58788 26164 ft 502 kts 159°
2026-05-07 20:52 47.22710 10.60739 26361 ft 502 kts 160°
2026-05-07 20:52 47.19477 10.62677 26569 ft 502 kts 160°
2026-05-07 20:52 47.16237 10.64629 26786 ft 502 kts 160°
2026-05-07 20:53 47.12998 10.66597 27014 ft 502 kts 161°
2026-05-07 20:53 47.09771 10.68568 27241 ft 501 kts 161°
2026-05-07 20:53 47.06560 10.70535 27460 ft 501 kts 161°
2026-05-07 20:53 47.03328 10.72516 27682 ft 501 kts 161°
2026-05-07 20:54 47.00162 10.74455 27898 ft 500 kts 161°
2026-05-07 20:54 46.96948 10.76423 28116 ft 500 kts 161°
2026-05-07 20:54 46.93738 10.78386 28525 ft 495 kts 161°
2026-05-07 20:54 46.90625 10.80292 29153 ft 487 kts 161°
2026-05-07 20:55 46.87547 10.82172 29611 ft 482 kts 162°
2026-05-07 20:55 46.84428 10.84075 29935 ft 482 kts 161°
2026-05-07 20:55 46.81369 10.86102 30217 ft 484 kts 159°
2026-05-07 20:55 46.78390 10.88357 30511 ft 485 kts 155°
2026-05-07 20:56 46.75497 10.90851 30807 ft 487 kts 152°
2026-05-07 20:56 46.72671 10.93610 31116 ft 488 kts 149°
2026-05-07 20:56 46.69953 10.96590 31402 ft 489 kts 146°
2026-05-07 20:56 46.67282 10.99630 31671 ft 489 kts 146°
2026-05-07 20:57 46.64603 11.02681 31947 ft 489 kts 147°
2026-05-07 20:57 46.61944 11.05701 32214 ft 488 kts 147°
2026-05-07 20:57 46.59272 11.08728 32470 ft 488 kts 147°
2026-05-07 20:57 46.56574 11.11776 32742 ft 488 kts 147°
2026-05-07 20:58 46.53909 11.14782 33011 ft 487 kts 147°
2026-05-07 20:58 46.51239 11.17787 33261 ft 487 kts 147°
2026-05-07 20:58 46.48559 11.20799 33511 ft 487 kts 147°
2026-05-07 20:58 46.45900 11.23784 33766 ft 486 kts 147°
2026-05-07 20:59 46.43209 11.26801 34015 ft 486 kts 148°
2026-05-07 20:59 46.40557 11.29771 34252 ft 485 kts 148°
2026-05-07 20:59 46.37899 11.32740 34503 ft 484 kts 148°
2026-05-07 20:59 46.35232 11.35720 34758 ft 483 kts 148°
2026-05-07 21:00 46.32562 11.38696 35015 ft 482 kts 148°
2026-05-07 21:00 46.29917 11.41643 35262 ft 481 kts 148°
2026-05-07 21:00 46.27262 11.44596 35521 ft 479 kts 148°
2026-05-07 21:00 46.24646 11.47504 35751 ft 478 kts 148°
2026-05-07 21:01 46.22032 11.50404 35965 ft 477 kts 148°
2026-05-07 21:01 46.19398 11.53324 36166 ft 476 kts 148°
2026-05-07 21:01 46.16775 11.56227 36359 ft 476 kts 148°
2026-05-07 21:01 46.14158 11.59120 36544 ft 475 kts 148°
2026-05-07 21:02 46.11518 11.62036 36708 ft 475 kts 148°
2026-05-07 21:02 46.08920 11.64900 36866 ft 474 kts 148°
2026-05-07 21:02 46.06316 11.67769 37012 ft 474 kts 148°
2026-05-07 21:03 46.01121 11.73480 37077 ft 473 kts 148°
2026-05-07 21:03 45.95873 11.79238 37083 ft 473 kts 149°
2026-05-07 21:04 45.90628 11.84976 37081 ft 473 kts 149°
2026-05-07 21:04 45.85415 11.90667 37073 ft 473 kts 149°
2026-05-07 21:05 45.80183 11.96363 37061 ft 473 kts 149°
2026-05-07 21:05 45.74950 12.02049 37048 ft 473 kts 149°
2026-05-07 21:06 45.69698 12.07741 37039 ft 473 kts 149°
2026-05-07 21:06 45.64477 12.13385 37035 ft 473 kts 149°
2026-05-07 21:07 45.59211 12.19065 37033 ft 473 kts 149°
2026-05-07 21:07 45.53981 12.24691 37035 ft 474 kts 149°
2026-05-07 21:08 45.48718 12.30355 37040 ft 475 kts 147°